Back to catalog

ONEWEB-0683

AliveCommunicationsPO
NORAD 56719·PAYLOAD·🇬🇧 United Kingdom

Launched May 20, 2023 from Vandenberg Space Force Base

Loading…

Next Passes (next 24 hours)

TLE

FreshSource: CelesTrak SupGP

Epoch: Sep 14, 2026, 16:08 UTC

1 56719C 23068K   26257.67272407 -.00000139  00000+0 -36845-3 0  2574
2 56719  87.8986 241.3571 0001829  90.2593  12.9624 13.15545822    18

Track ONEWEB-0683 in real time with AllMySat

Download on the App Store